Flag for Montserrat Weather past 2 weeks in Brades, Montserrat

Now
81 °F

Passing clouds.


Feels Like: 86 °F
Forecast: 81 / 83 °F
Wind: 6 mph from Southeast

Location: Vc Bird International Antigua Airport

Current Time: Sep 22, 2014 at 11:29:16 PM

Latest Report: Sep 22, 2014 at 11:00 PM


Visibility: N/A

Pressure: 29.95 "Hg

Humidity: 84%

Dew point: 75 °F

Location of BradesLocation

Historic Weather in Brades — Graph

°F

Brades temperature yesterday

Maximum temperature yesterday: 88 °F (at 11:00 AM)
Minimum temperature yesterday: 82 °F (at 12:00 AM)
Average temperature yesterday: 84 °F

Past Weeks' High & Low Weather Summary

 TemperatureHumidityPressure
High88 °F (Sep 8, 2:00 PM)94% (Sep 22, 4:00 PM)30.07 "Hg (Sep 22, 4:00 PM)
Low77 °F (Sep 15, 6:00 AM)59% (Sep 15, 11:00 AM)29.89 "Hg (Sep 11, 4:00 PM)
Average83 °F75%29.97 "Hg
* Reported Sep 7 10:00 PM — Sep 22 10:00 PM, Brades, Weather by CustomWeather, © 2014

Note: Actual official high and low records may vary slightly from our data, if they occured in-between our weather recording intervals... More about our weather records

Advertising

Brades weather history for previous 24 hours

 ConditionsComfort  
Time TempWeatherWind HumidityBarometerVisibility
10:00 PM
Sep 22
81 °FPassing clouds.7 mph84%29.95 "HgN/A
9:00 PM79 °FPassing clouds.6 mph89%29.95 "HgN/A
8:00 PM77 °FPassing clouds.1 mph89%29.95 "HgN/A
7:00 PM77 °FPassing clouds.6 mph89%29.92 "HgN/A
6:00 PM77 °FPartly sunny.No wind89%29.92 "HgN/A
5:00 PM77 °FLight rain. Partly sunny.6 mph89%29.92 "HgN/A
4:30 PM77 °FRain. Partly sunny.6 mph89%29.92 "Hg4 mi
4:00 PM77 °FRain showers. Partly sunny.14 mph94%29.92 "HgN/A
3:30 PM77 °FRain showers. Partly sunny.17 mph89%29.92 "Hg2 mi
3:00 PM77 °FSprinkles. Scattered clouds.5 mph89%29.92 "HgN/A
2:19 PM81 °FRain showers. Partly sunny.23 mph74%29.89 "Hg1 mi
2:00 PM86 °FPartly sunny.10 mph70%29.89 "HgN/A
1:00 PM88 °FScattered clouds.8 mph66%29.92 "HgN/A
12:00 PM88 °FScattered clouds.9 mph66%29.95 "HgN/A
11:00 AM84 °FScattered clouds.10 mph74%29.98 "HgN/A
10:00 AM84 °FScattered clouds.10 mph74%29.98 "HgN/A
9:00 AM84 °FScattered clouds.9 mph74%29.98 "HgN/A
8:00 AM81 °FScattered clouds.6 mph84%29.95 "HgN/A
7:00 AM79 °FScattered clouds.3 mph89%29.95 "HgN/A
6:00 AM77 °FScattered clouds.5 mph89%29.92 "HgN/A
5:00 AM79 °FPassing clouds.5 mph89%29.92 "HgN/A
4:00 AM79 °FPassing clouds.3 mph89%29.92 "HgN/A
3:00 AM79 °FPassing clouds.2 mph89%29.92 "HgN/A
2:00 AM79 °FPassing clouds.1 mph89%29.95 "HgN/A
1:00 AM79 °FPassing clouds.1 mph89%29.95 "HgN/A
12:00 AM81 °FPartly cloudy.2 mph84%29.98 "HgN/A
11:00 PM
Sep 21
82 °FSprinkles. Passing clouds.6 mph79%29.98 "HgN/A
Weather by CustomWeather, © 2014

See weather overviewHow to use our weather pages